Regional Weather Roundup
Issued by NWS Little Rock, AR

Home | Current Version | Previous Version | Graphics & Text | Print | Product List | Glossary On
Versions: 1 2 3 4 5 6 7 8 9 10 11 12 13 14 15 16 17 18 19 20 21 22 23 24 25 26 27 28 29 30 31
000
ASUS44 KLZK 230905
RWRLZK

WEATHER ROUNDUP FOR ARKANSAS
NATIONAL WEATHER SERVICE LITTLE ROCK AR
400 AM CDT MON APR 23 2018

NOTE: "FAIR" INDICATES FEW OR NO CLOUDS BELOW 12,000 FEET WITH NO
SIGNIFICANT WEATHER AND/OR OBSTRUCTIONS TO VISIBILITY.

ARZ001-003-010-029-231000-
NORTHWEST ARKANSAS

CITY           SKY/WX    TMP DP  RH WIND       PRES   REMARKS
FAYETTEVILLE   CLOUDY    51  50  96 NW10      29.95S
FORT SMITH     CLOUDY    56  54  93 NW7       29.93S
HARRISON       LGT RAIN  50  50 100 NW8       29.92R FOG
BENTONVILLE    CLOUDY    50  48  93 N6        29.98S
ROGERS         CLOUDY    50  48  93 N7        29.97S
SILOAM SPGS    CLOUDY    50  49  96 N10         N/A
HIGHFILL       CLOUDY    50  49  96 N12       29.97
$$

ARZ004-005-016-231000-
NORTH CENTRAL ARKANSAS

CITY           SKY/WX    TMP DP  RH WIND       PRES   REMARKS
BATESVILLE     LGT RAIN  55 N/A N/A NW6       29.85R
FLIPPIN        CLOUDY    54  53  97 N7        29.90R
MTN HOME       LGT RAIN  53  53 100 VRB3      29.88S
$$

ARZ040-041-231000-
WEST CENTRAL ARKANSAS

CITY           SKY/WX    TMP DP  RH WIND       PRES   REMARKS
MENA           CLOUDY    55  54  94 CALM      29.92S
MOUNT IDA      CLOUDY    54  53  97 NW5       29.88F
$$

ARZ009-017-025-026-028-231000-
NORTHEAST ARKANSAS

CITY           SKY/WX    TMP DP  RH WIND       PRES   REMARKS
CORNING        CLOUDY    57  57 100 N12       29.80S
JONESBORO      LGT RAIN  58  58 100 NW6       29.79S
WALNUT RIDGE   LGT RAIN  57  56  96 NW10      29.81S
BLYTHEVILLE    LGT RAIN  58  56  93 NW7       29.76S
$$

ARZ022-023-033-042-044-231000-
CENTRAL ARKANSAS

CITY           SKY/WX    TMP DP  RH WIND       PRES   REMARKS
LITTLE ROCK    CLOUDY    55  52  89 W10       29.88S
N LITTLE ROCK    N/A     53  52  96 W3        29.85S
JACKSONVILLE   CLOUDY    55  54  96 W8        29.86F
CONWAY         CLOUDY    55  54  94 W7        29.88S
SEARCY         CLOUDY    56  56 100 VRB6      29.85F
HOT SPRINGS    CLOUDY    55  53  93 VRB6      29.90F
RUSSELLVILLE   MOCLDY    54  53  97 W8        29.88F
CLINTON        CLOUDY    55  52  88 NW7       29.88R
$$

ARZ036-231000-
EAST ARKANSAS

CITY           SKY/WX    TMP DP  RH WIND       PRES   REMARKS
WEST MEMPHIS   CLOUDY    56  56 100 W7        29.80R
$$

ARZ050-053-066-070-073-231000-
SOUTHWEST ARKANSAS

CITY           SKY/WX    TMP DP  RH WIND       PRES   REMARKS
ARKADELPHIA    CLOUDY    54  51  90 SW3       29.92S
CAMDEN         CLOUDY    55  48  76 W3        29.92R
TEXARKANA      CLOUDY    54  50  86 W8        29.95R
EL DORADO      CLOUDY    53  52  96 W3        29.94R
DE QUEEN       CLOUDY    54  53  97 W6        29.92R
$$

ARZ056-057-069-231000-
SOUTHEAST ARKANSAS

CITY           SKY/WX    TMP DP  RH WIND       PRES   REMARKS
PINE BLUFF     FAIR      53  50  89 W5        29.88F
STUTTGART      CLOUDY    55  53  93 W10       29.87S
MONTICELLO     CLOUDY    54  50  86 W8        29.90R

$$






USA.gov is the U.S. government's official web portal to all federal, state and local government web resources and services.